Regional Weather Roundup
Issued by NWS

Home | Current Version | Previous Version | Graphics & Text | Print | Product List | Glossary On
Versions: 1 2 3 4 5 6 7 8 9 10 11 12 13 14 15 16 17 18 19 20 21 22 23 24 25 26 27 28 29 30 31 32 33 34 35 36 37 38 39 40 41 42 43 44 45 46 47 48 49 50
000
ASUS43 KDTX 301410
RWRMI
MICHIGAN HOURLY REGIONAL WEATHER ROUNDUP
NATIONAL WEATHER SERVICE DETROIT/PONTIAC MI
1000 AM EDT SAT JUL 30 2016

NOTE: "FAIR" INDICATES FEW OR NO CLOUDS BELOW 12,000 FEET WITH NO
SIGNIFICANT WEATHER AND/OR OBSTRUCTION TO VISIBILITY.

MIZ047>049-052>055-059>063-066>070-074>076-081>083-301500-
SOUTHEAST LOWER MICHIGAN

CITY           SKY/WX    TMP DP  RH WIND       PRES   REMARKS
ADRIAN         CLOUDY    69  65  86 NE12      29.98S
ALMA           CLOUDY    67  65  93 NE7       30.03S
ANN ARBOR      TSTM      65  65 100 NW12      29.99R FOG
BAD AXE        CLOUDY    67  65  94 E6        30.06R
CARO           LGT RAIN  64  63  96 E6        30.03S
DETROIT CITY   CLOUDY    70  64  81 NE9       29.98S
DETROIT        PTSUNNY   74  65  73 NE12      29.98R
FLINT          LGT RAIN  69  64  84 NE8       30.02R
GROSSE ILE     CLOUDY    74  67  77 NE8       29.96R
HILLSDALE      CLOUDY    65  63  90 N8        29.99S
HOWELL         RAIN      64  63  97 NE3       30.01S

CITY           SKY/WX    TMP DP  RH WIND       PRES   REMARKS
JACKSON        LGT RAIN  64  64 100 E6        30.00S
LAMBERTVILLE   CLOUDY    75  67  76 NE3       29.96S
LANSING        LGT RAIN  65  62  90 E6        30.01S
LAPEER         LGT RAIN  66  63  87 N3        30.03S
MASON          CLOUDY    65  61  85 NE8       30.00S
MONROE         CLOUDY    73  69  89 CALM      29.95S
MT. CLEMENS    CLOUDY    71  62  73 NE10      29.97S
PONTIAC        TSTM      65  62  90 NE8       30.00S FOG
PORT HOPE        N/A     68  62  81 E14       30.05R
PORT HURON     LGT RAIN  66  63  88 NE5       30.01S
TRI CITIES     CLOUDY    67  64  90 E12       30.03R
MIDLAND        CLOUDY    68  62  81 E13       30.03R
TROY           CLOUDY    71  60  67 NE9       30.01S
SAGINAW HB     RAIN      64  63  94 NE10      30.02S
$$
MIZ043>046-050>051-056>058-064>065-071>073-077>080-301500-
SOUTHWEST LOWER MICHIGAN

CITY           SKY/WX    TMP DP  RH WIND       PRES   REMARKS
BATTLE CREEK   LGT RAIN  62  62 100 N7        30.01S
BENTON HARBOR  PTSUNNY   68  63  84 E9        29.98F
BIG RAPIDS     MOSUNNY   69  63  80 E8        30.03F
COLDWATER      CLOUDY    66  64  91 NE9       29.99S
FREMONT        FAIR      68  63  83 NE7       30.02S
HOLLAND        CLOUDY    66  62  87 E7        30.01S
GRAND RAPIDS   PTSUNNY   66  61  84 E8        30.01S
IONIA          CLOUDY    65  62  91 E8        30.02R
KALAMAZOO      HVY RAIN  65  62  90 CALM      29.99R FOG
LUDINGTON      SUNNY     70  60  70 E8        30.03S
MARSHALL       LGT RAIN  64  63  99 CALM      30.00R
MOUNT PLEASANT PTSUNNY   71  61  71 E6        30.02F
MUSKEGON       CLOUDY    71  62  73 E9        30.02R
SOUTH HAVEN    RAIN      64  63  98 E6        29.99S
$$
MIZ016>042-301500-
NORTHERN LOWER MICHIGAN

CITY           SKY/WX    TMP DP  RH WIND       PRES   REMARKS
ALPENA         SUNNY     73  53  49 E14G20    30.10R
BEAVER ISLAND  SUNNY     73  60  63 E7        30.10S
BELLAIRE       SUNNY     72  55  55 NE9       30.08F
CADILLAC       SUNNY     68  57  67 NE9G22    30.06F
CHARLEVOIX     SUNNY     72  56  57 E5        30.12S
FRANKFORT      SUNNY     71  55  58 E8G16     30.07S
GAYLORD        SUNNY     69  53  56 NE9G21    30.11S
GRAYLING       SUNNY     72  53  52 E16       30.09S
HARBOR SPRINGS SUNNY     71  56  58 E6        30.10S
HOUGHTON LAKE  SUNNY     69  57  65 E10       30.08S
MANISTEE       SUNNY     70  58  65 E13       30.04S
OSCODA         CLOUDY    71  60  67 E16       30.07S
PELLSTON       SUNNY     73  55  53 NE6       30.11R
ROGERS CITY    SUNNY     71  57  62 E9        30.12R
TRAVERSE CITY  MOSUNNY   73  55  53 NE9       30.06F
$$
MIZ007>008-015-301500-
EASTERN UPPER MICHIGAN

CITY           SKY/WX    TMP DP  RH WIND       PRES   REMARKS
KINROSS        SUNNY     70  58  65 N3        30.12R
MACKINAC ISLAN SUNNY     71  57  61 NE6       30.10S
NEWBERRY       SUNNY     68  55  64 CALM      30.12S
S. S. MARIE    SUNNY     69  59  70 CALM      30.11R
MUNISING         N/A     69  58  67 CALM      30.10F
$$
MIZ004>006-011>014-085-301500-
CENTRAL UPPER MICHIGAN

CITY           SKY/WX    TMP DP  RH WIND       PRES   REMARKS
MANISTIQUE     SUNNY     71  58  64 CALM      30.10S
ESCANABA         N/A     70  61  73 E3        30.09
MENOMINEE      SUNNY    N/A N/A N/A E10         N/A
SAWYER-GWINN   SUNNY     66  55  68 CALM      30.13R
$$
MIZ001>003-009>011-084-301500-
WESTERN UPPER MICHIGAN

CITY           SKY/WX    TMP DP  RH WIND       PRES   REMARKS
IRON MOUNTAIN  SUNNY     68  57  68 SE5       30.10S
HOUGHTON       SUNNY     67  59  75 SE6       30.10S
COPPER HARBOR    N/A     70  54  56 VRB3      30.09S
IRONWOOD       MOSUNNY   70  55  60 S6        30.07S
$$

ABBREVIATIONS USED IN REMARKS
   TC - TEMPERATURE IN CELSIUS
  WCI - WIND CHILL INDEX
   HX - HEAT INDEX
  VSB - VISIBILITY





USA.gov is the U.S. government's official web portal to all federal, state and local government web resources and services.